[[{"header":{"parameterUnit":"m.s-1","parameterCategory":1,"la1":30.2991,"la2":30.254,"lo1":-89.0895,"lo2":-89.0444,"dy":0.0017,"dx":0.0017,"nx":28,"ny":28,"refTime":"2025-01-01T09:00:00:Z","depth":0,"parameterNumber":2,"parameterNumberName":"U-component_of_WINDS"},"data":[0,0,0,0,0,0,0,0,0,0,0,0,0,0,0,0,0,0,0,0,0,0,0,0,0,0,0,0,0,0,0,0,0,0,0,0,0,0,0,0,0,0,0,0,0,0,0,0,0,0,0,0,0,0,0,0,0,0,-3.5595,-3.5596,0,-3.5693,-3.5694,-3.5695,-3.5564,-3.5559,-3.5555,-3.555,-3.5653,-3.566,-3.5667,0,0,0,0,0,0,0,0,0,0,0,0,0,-3.5294,-3.5301,-3.5595,-3.5596,-3.5597,-3.5693,-3.5694,-3.5695,-3.5565,-3.5559,-3.5553,-3.5548,-3.565,-3.5659,-3.5667,0,0,0,0,0,0,0,0,0,0,0,0,0,-3.5412,-3.5303,-3.5594,-3.5543,-3.554,-3.5693,-3.5694,-3.5696,-3.5566,-3.5559,-3.5552,-3.5545,-3.5648,-3.5658,-3.5669,-3.5877,0,0,-3.5701,-3.5706,0,0,0,0,0,0,0,0,-3.5406,-3.5423,-3.555,-3.5547,-3.5543,-3.5609,-3.5626,-3.5757,-3.5568,-3.5556,-3.555,-3.5542,-3.5644,-3.5655,-3.5689,-3.5882,-3.5886,-3.5702,-3.5709,-3.5713,-3.5716,0,0,0,0,0,0,0,-3.5398,-3.5418,-3.5633,-3.5552,-3.5548,-3.5516,-3.5525,-3.565,-3.5639,-3.5557,-3.5547,-3.5561,-3.5641,-3.5679,-3.569,-3.5887,-3.5702,-3.5712,-3.5718,-3.5722,-3.6254,-3.6262,0,0,0,0,0,0,-3.5395,-3.5412,-3.563,-3.5636,-3.5456,-3.5527,-3.5537,-3.5595,-3.5637,-3.5637,-3.5567,-3.5554,-3.5664,-3.5678,-3.5693,-3.5939,-3.5713,-3.5723,-3.573,-3.6247,-3.6256,-3.6265,0,0,0,0,0,0,-3.5389,-3.5416,-3.5626,-3.5522,-3.5546,-3.554,-3.5606,-3.5601,-3.5638,-3.5645,-3.5642,-3.5607,-3.5659,-3.5678,-3.5832,-3.5941,-3.5728,-3.5738,-3.6238,-3.625,-3.626,-3.6433,0,0,0,0,0,0,-3.5381,-3.5415,-3.5494,-3.5525,-3.5552,-3.5764,-3.5613,-3.5608,-3.5657,-3.5642,-3.5682,-3.5682,-3.5655,-3.5816,-3.5842,-3.5952,-3.5746,-3.6228,-3.6243,-3.6257,-3.6417,-3.6449,-3.6476,0,0,0,0,0,-3.5371,-3.5539,-3.5499,-3.5526,-3.5651,-3.577,-3.5786,-3.5751,-3.5666,-3.5746,-3.5749,-3.5681,-3.5924,-3.5833,-3.5861,-3.5975,-3.6221,-3.6239,-3.6256,-3.6404,-3.6442,-3.6475,0,0,0,0,0,0,-3.5522,-3.5542,-3.5497,-3.568,-3.5725,-3.5748,-3.5847,-3.5793,-3.5862,-3.5845,-3.5799,-3.5809,-3.5973,-3.5989,-3.5887,-3.6178,-3.6059,-3.6082,-3.6162,-3.6198,-3.6227,-3.622,-3.5755,0,0,0,0,0,-3.5577,-3.5672,-3.5684,-3.5844,-3.5868,-3.5854,-3.5905,-3.5874,-3.5918,-3.5936,-3.5951,-3.5997,-3.6083,-3.6142,-3.6222,-3.6418,-3.6425,-3.6511,-3.654,-3.6564,-3.6585,-3.6689,-3.6727,-3.6321,-3.6321,-3.6321,0,0,-3.5691,-3.5713,-3.5776,-3.5875,-3.5905,-3.6005,-3.5871,-3.5982,-3.6055,-3.5953,-3.6098,-3.6111,-3.6159,-3.6335,-3.6413,-3.6354,-3.6698,-3.6586,-3.6605,-3.6613,-3.6711,-3.6749,-3.6784,-3.6333,-3.6331,-3.6329,0,0,-3.5949,-3.5976,-3.6111,-3.6144,-3.6192,-3.6181,-3.6214,-3.6245,-3.6249,-3.6394,-3.6319,-3.6406,-3.6556,-3.6593,-3.6632,-3.6902,-3.6841,-3.693,-3.7082,-3.7184,-3.7216,-3.7244,-3.7341,-3.7376,-3.6951,-3.6951,-3.6951,0,-3.6085,-3.6231,-3.6188,-3.6304,-3.635,-3.6261,-3.6398,-3.6432,-3.6504,-3.6537,-3.6469,-3.6655,-3.6681,-3.6864,-3.693,-3.6964,-3.7,-3.6925,-3.7215,-3.7243,-3.7268,-3.736,-3.7396,-3.6961,-3.696,-3.6959,-3.6958,0,-3.6395,-3.6498,-3.6602,-3.6672,-3.6729,-3.6855,-3.6832,-3.6895,-3.6859,-3.6855,-3.7003,-3.7031,-3.7115,-3.7156,-3.7122,-3.7334,-3.7295,-3.7222,-3.7101,-3.7318,-3.7403,-3.7438,-3.6976,-3.6973,-3.697,-3.6967,0,0,-3.6753,-3.6796,-3.6835,-3.6866,-3.6911,-3.6989,-3.7111,-3.7192,-3.7246,-3.7299,-3.7399,-3.7528,-3.746,-3.7504,-3.7473,-3.7563,-3.7774,-3.7478,-3.7479,-3.7532,-3.8009,-3.8063,-3.8104,-3.7734,-3.774,-3.7746,-3.8004,0,-3.701,-3.722,-3.7185,-3.7388,-3.7482,-3.7398,-3.7504,-3.7543,-3.7543,-3.7622,-3.7621,-3.7713,-3.7617,-3.7643,-3.7728,-3.7731,-3.787,-3.7712,-3.7827,-3.7832,-3.7818,-3.8149,-3.8207,-3.845,-3.8037,-3.8043,-3.8047,0,-3.7339,-3.7402,-3.7615,-3.7644,-3.7682,-3.7778,-3.7848,-3.7925,-3.7967,-3.7961,-3.8009,-3.7961,-3.8082,-3.7959,-3.8125,-3.8018,-3.8063,-3.8072,-3.8081,-3.809,-3.7953,-3.8167,-3.8527,-3.8564,-3.8099,-3.8095,-3.8091,0,-3.7578,-3.7716,-3.7861,-3.7889,-3.7927,-3.7996,-3.8015,-3.805,-3.81,-3.8162,-3.8194,-3.827,-3.8312,-3.8371,-3.8345,-3.8258,-3.8516,-3.839,-3.8514,-3.8515,-3.8572,-3.8569,-3.8944,-3.8602,-3.8601,-3.8601,-3.86,0,-3.7869,-3.8003,-3.7968,-3.8058,-3.8204,-3.8162,-3.8309,-3.8317,-3.8349,-3.8438,-3.837,-3.8456,-3.8416,-3.8498,-3.8479,-3.8619,-3.8638,-3.8636,-3.8629,-3.8642,-3.8642,-3.8671,-3.8654,-3.861,-3.8608,-3.8606,-3.8605,0,-3.8161,-3.8143,-3.8296,-3.8318,-3.8327,-3.8434,-3.8453,-3.8536,-3.853,-3.8644,-3.8668,-3.8659,-3.8752,-3.8731,-3.8834,-3.8821,-3.8997,-3.8969,-3.8982,-3.8976,-3.91,-3.9088,-3.9506,-3.9559,-3.9183,-3.9187,-3.919,0,-3.8348,-3.8449,-3.8482,-3.8536,-3.856,-3.8649,-3.8699,-3.8662,-3.8717,-3.8772,-3.8849,-3.8936,-3.9004,-3.9157,-3.9159,-3.9237,-3.921,-3.9352,-3.9222,-3.9231,-3.9212,-3.9206,-3.9216,-3.9378,-3.9382,-3.9385,-3.9388,0,-3.8682,-3.8668,-3.8743,-3.8816,-3.8878,-3.8934,-3.8983,-3.9031,-3.8997,-3.9063,-3.9157,-3.921,-3.9314,-3.9401,-3.9473,-3.9492,-3.9435,-3.9429,-3.9461,-3.9476,-3.9479,-3.9478,-3.9052,-3.942,-3.9416,-3.9414,-3.9412,-3.9411,-3.8927,-3.9012,-3.9048,-3.9134,-3.9166,-3.9213,-3.9292,-3.9295,-3.9373,-3.9454,-3.9427,-3.9534,-3.9573,-3.9663,-3.9691,-3.9774,-3.9721,-3.9768,-3.978,-3.9792,-3.9807,-3.9466,-3.9787,-3.9786,-3.9785,-3.9784,-3.9784,0,-3.9256,-3.9275,-3.9355,-3.9425,-3.9492,-3.9432,-3.9482,-3.9543,-3.9638,-3.9678,-3.9746,-3.9854,-3.9937,-3.9946,-4.0025,-4.009,-4.0066,-4.0112,-4.0106,-4.0112,-3.9851,-3.9814,-4.013,-4.013,-4.013,-4.013,-4.013,-4.013,-3.9436,-3.9576,-3.9566,-3.9721,-3.9739,-3.9843,-3.9877,-3.992,-3.9951,-4.0074,-4.0143,-4.0148,-4.0175,-4.0255,-4.0329,-4.033,-4.0362,-4.0418,-4.0409,-4.0165,-4.013,-4.0097,-4.0063,-4.0426,-4.0426,-4.0662,-4.0664,-4.0666]},{"header":{"parameterUnit":"m.s-1","parameterCategory":1,"la1":30.2991,"la2":30.254,"lo1":-89.0895,"lo2":-89.0444,"dy":0.0017,"dx":0.0017,"nx":28,"ny":28,"refTime":"2025-01-01T09:00:00:Z","depth":0,"parameterNumber":3,"parameterNumberName":"V-component_of_WINDS"},"data":[0,0,0,0,0,0,0,0,0,0,0,0,0,0,0,0,0,0,0,0,0,0,0,0,0,0,0,0,0,0,0,0,0,0,0,0,0,0,0,0,0,0,0,0,0,0,0,0,0,0,0,0,0,0,0,0,0,0,-2.7624,-2.7624,0,-2.7687,-2.7688,-2.7688,-2.7672,-2.767,-2.7669,-2.7668,-2.7731,-2.7733,-2.7736,0,0,0,0,0,0,0,0,0,0,0,0,0,-2.7485,-2.7488,-2.7624,-2.7624,-2.7625,-2.7687,-2.7688,-2.7688,-2.7672,-2.767,-2.7669,-2.7667,-2.773,-2.7733,-2.7736,0,0,0,0,0,0,0,0,0,0,0,0,0,-2.7546,-2.7489,-2.7623,-2.7624,-2.7625,-2.7687,-2.7688,-2.7689,-2.7672,-2.767,-2.7668,-2.7667,-2.7728,-2.7733,-2.7737,-2.7801,0,0,-2.775,-2.7752,0,0,0,0,0,0,0,0,-2.7543,-2.7552,-2.7623,-2.7624,-2.7625,-2.7669,-2.7662,-2.7726,-2.7673,-2.7654,-2.7668,-2.7666,-2.7712,-2.7717,-2.7733,-2.7804,-2.7806,-2.775,-2.7753,-2.7755,-2.7756,0,0,0,0,0,0,0,-2.7539,-2.7549,-2.7648,-2.7624,-2.7626,-2.762,-2.7627,-2.7674,-2.7693,-2.7656,-2.7655,-2.7662,-2.7712,-2.7729,-2.7734,-2.7807,-2.775,-2.7754,-2.7756,-2.7758,-2.7931,-2.7933,0,0,0,0,0,0,-2.7534,-2.7545,-2.7646,-2.765,-2.7579,-2.7625,-2.7632,-2.7657,-2.7692,-2.7696,-2.7664,-2.7661,-2.7723,-2.7729,-2.7736,-2.7812,-2.7755,-2.7759,-2.7761,-2.7929,-2.7931,-2.7934,0,0,0,0,0,0,-2.7531,-2.7543,-2.7644,-2.7598,-2.761,-2.7629,-2.7657,-2.7659,-2.7677,-2.7698,-2.7701,-2.7678,-2.7721,-2.773,-2.7784,-2.7814,-2.776,-2.7764,-2.7927,-2.793,-2.7933,-2.7964,0,0,0,0,0,0,-2.7527,-2.7542,-2.7568,-2.7598,-2.7613,-2.7692,-2.7659,-2.7662,-2.7684,-2.7681,-2.7713,-2.7716,-2.7721,-2.7778,-2.7789,-2.7819,-2.7768,-2.7924,-2.7928,-2.7932,-2.7961,-2.7968,-2.7975,0,0,0,0,0,-2.7523,-2.7574,-2.7569,-2.7581,-2.7645,-2.7694,-2.7702,-2.7707,-2.7687,-2.7712,-2.7725,-2.7715,-2.7809,-2.7784,-2.7796,-2.7827,-2.7922,-2.7927,-2.7931,-2.7958,-2.7967,-2.7974,0,0,0,0,0,0,-2.7546,-2.7578,-2.7573,-2.7636,-2.7662,-2.7691,-2.7722,-2.7716,-2.7748,-2.7744,-2.7748,-2.7755,-2.781,-2.7824,-2.7796,-2.789,-2.7863,-2.787,-2.7879,-2.7888,-2.7894,-2.7889,-2.7771,0,0,0,0,0,-2.7559,-2.7597,-2.7623,-2.7676,-2.7689,-2.7704,-2.7725,-2.7727,-2.7754,-2.7764,-2.7782,-2.7808,-2.7843,-2.7866,-2.79,-2.7963,-2.7968,-2.7991,-2.7997,-2.8003,-2.8009,-2.8041,-2.8051,-2.7949,-2.7949,-2.7949,0,0,-2.7585,-2.7607,-2.7631,-2.7681,-2.7702,-2.7739,-2.7713,-2.7755,-2.7782,-2.777,-2.7822,-2.7836,-2.7865,-2.7923,-2.795,-2.7937,-2.8038,-2.8009,-2.8013,-2.8016,-2.8047,-2.8056,-2.8065,-2.7952,-2.7951,-2.7951,0,0,-2.7652,-2.7674,-2.772,-2.7741,-2.7772,-2.7781,-2.7792,-2.7821,-2.783,-2.7882,-2.7873,-2.7906,-2.7967,-2.7988,-2.8006,-2.808,-2.8071,-2.8091,-2.8126,-2.8158,-2.8166,-2.8173,-2.8197,-2.8206,-2.8096,-2.8097,-2.8097,0,-2.7681,-2.7739,-2.7744,-2.7786,-2.7808,-2.7799,-2.7844,-2.7864,-2.7905,-2.7919,-2.7904,-2.798,-2.7999,-2.8061,-2.8078,-2.8094,-2.8106,-2.8087,-2.8164,-2.8171,-2.8178,-2.8202,-2.8211,-2.8099,-2.8098,-2.8098,-2.8098,0,-2.7771,-2.7812,-2.7845,-2.7884,-2.791,-2.7953,-2.7964,-2.7989,-2.7988,-2.7998,-2.805,-2.8072,-2.811,-2.8125,-2.8124,-2.8186,-2.8177,-2.8163,-2.8136,-2.819,-2.8212,-2.8221,-2.8102,-2.8101,-2.81,-2.81,0,0,-2.7856,-2.7897,-2.7909,-2.7926,-2.7959,-2.799,-2.8032,-2.8069,-2.8089,-2.8118,-2.8152,-2.8204,-2.8191,-2.8211,-2.8213,-2.8241,-2.8296,-2.8224,-2.8224,-2.8235,-2.8363,-2.8373,-2.8383,-2.829,-2.8292,-2.8294,-2.836,0,-2.7924,-2.8,-2.8005,-2.8073,-2.8109,-2.8101,-2.8138,-2.8161,-2.8172,-2.8203,-2.8214,-2.825,-2.8231,-2.8243,-2.8271,-2.8283,-2.8321,-2.8279,-2.8321,-2.8323,-2.8313,-2.8395,-2.8405,-2.8467,-2.8369,-2.8371,-2.8372,0,-2.8015,-2.8046,-2.8117,-2.8144,-2.816,-2.8193,-2.8226,-2.8257,-2.8283,-2.8288,-2.8311,-2.8308,-2.835,-2.8322,-2.8379,-2.835,-2.8368,-2.8376,-2.8379,-2.8382,-2.835,-2.8399,-2.8487,-2.8496,-2.8386,-2.8385,-2.8384,0,-2.8067,-2.8126,-2.8176,-2.8192,-2.8225,-2.8248,-2.8262,-2.8287,-2.8308,-2.8337,-2.8351,-2.8384,-2.8402,-2.8427,-2.8433,-2.8412,-2.849,-2.8462,-2.8494,-2.8494,-2.851,-2.8509,-2.8601,-2.8524,-2.8524,-2.8523,-2.8523,0,-2.8143,-2.8187,-2.82,-2.8231,-2.8279,-2.8284,-2.8331,-2.8344,-2.8366,-2.8397,-2.8392,-2.8422,-2.8429,-2.846,-2.8465,-2.851,-2.8519,-2.8523,-2.8524,-2.8523,-2.8522,-2.8534,-2.8529,-2.8526,-2.8525,-2.8525,-2.8524,0,-2.8209,-2.822,-2.8274,-2.83,-2.8308,-2.8342,-2.8364,-2.8393,-2.8403,-2.8443,-2.8453,-2.8467,-2.8503,-2.8512,-2.8555,-2.8558,-2.8611,-2.8608,-2.8603,-2.8602,-2.8633,-2.8629,-2.8735,-2.8748,-2.8663,-2.8664,-2.8665,0,-2.8256,-2.8289,-2.8319,-2.8341,-2.8356,-2.8391,-2.8412,-2.8418,-2.8441,-2.8472,-2.8497,-2.8532,-2.8561,-2.8618,-2.8632,-2.8664,-2.8661,-2.8696,-2.8666,-2.8664,-2.866,-2.8657,-2.866,-2.8701,-2.8702,-2.8703,-2.8704,0,-2.8337,-2.8341,-2.8373,-2.8406,-2.8432,-2.8459,-2.8484,-2.8502,-2.8511,-2.8536,-2.8573,-2.8595,-2.8638,-2.8673,-2.8705,-2.8719,-2.8712,-2.8713,-2.8722,-2.8721,-2.8715,-2.8717,-2.8617,-2.871,-2.871,-2.8709,-2.8709,-2.8709,-2.8394,-2.8423,-2.8448,-2.8483,-2.8503,-2.8526,-2.8554,-2.8567,-2.8598,-2.8634,-2.8636,-2.8675,-2.8699,-2.8741,-2.8757,-2.8787,-2.8776,-2.879,-2.8793,-2.8796,-2.8797,-2.8712,-2.8793,-2.8793,-2.8793,-2.8793,-2.8793,0,-2.8474,-2.849,-2.8522,-2.8558,-2.8585,-2.8577,-2.8604,-2.8627,-2.8662,-2.8685,-2.8713,-2.8755,-2.8788,-2.8804,-2.8837,-2.8858,-2.8855,-2.8866,-2.8864,-2.8867,-2.8806,-2.8795,-2.8867,-2.8867,-2.8867,-2.8867,-2.8867,-2.8867,-2.8519,-2.8566,-2.8573,-2.8629,-2.8644,-2.8683,-2.8699,-2.872,-2.8739,-2.8785,-2.8813,-2.8823,-2.8843,-2.8877,-2.8906,-2.891,-2.8922,-2.8934,-2.8936,-2.8879,-2.8871,-2.8864,-2.8853,-2.8936,-2.8937,-2.8993,-2.8994,-2.8994]}]]